STARLINK-1297, 45395

Orbit data source: Space-Track

STARLINK-1297, 45395 is a payload satellite owned by SpaceX/Seattle (US) in LEO that was launched on Wed, 18 Mar 2020 UTC via an FALCON 9 launch vehicle from the Air Force Eastern Test Range (AFETR). Payload-class satellites include a variety of spacecraft equipped with specific instruments for various scientific and technological missions. These include communications satellites like Starlink; space stations such as the ISS; scientific satellites like the Hubble; Earth observation satellites from companies like Planet Labs, Umbra, and HawkEye 360; GPS; miniature CubeSats for education and research; and military/defense satellites.

Loading next visibility...
Identifier
45395, 2020-019AM
Orbit
LEO
Country
Flag of USUS
Related business
Manufacturer
SpaceX/Seattle
Mission
Partially operational Commercial Communications
Bus & Motor
STARLINK, Unknown motor
Mass
260 kg wet, ~248 kg dry
Launch date (UTC)
2020-03-18 (6 years ago)
Launch vehicle
FALCON 9
Launch site
Air Force Eastern Test Range (AFETR)
Object type
Payload
Rocket body
Debris
Shape & HBR
Box + 1 Pan, 10.1 m
Radar Cross Section
13.562 m², Large (>1 m²)

Expand to show TLE details & history
Last TLE update: 10 hours ago

TLE from 10 hours ago
0 STARLINK-1297
1 45395U 20019AM  26199.84381816  .00054960  00000-0  31788-3 0  9998
2 45395  53.0384 206.0414 0003901  45.5543 314.5796 15.78077165349960
Epoch: 2026-07-18T20:15Z
TLE epoch observation values (Epoch: 2026-07-18T20:15:05.889Z)
Latitude
0.00004°
Longitude
-34.38385°
Altitude
334.956 km
Speed
7.71 km/s
True Right ascension
13h 44m 09s
True Declination
0° 00' 00"
Sunlit
Object was in daylight at epoch
Visualization orbit readout
Latitude
Unknown
Longitude
Unknown
Altitude
Unknown
Speed
Unknown
Apparent Right ascension
Unknown
Apparent Declination
Unknown
Sunlit
N/A
Visualization observer readout
Local Sidereal Time
19:07:06
Azimuth
Unknown
Elevation
Unknown
Doppler factor
Unknown
Orbital elements
Apogee altitude
338.79 km
Perigee altitude
333.551 km
Semi-major axis
6,714.308 km
Eccentricity
0.00039
Inclination
53.0384°
RAAN
206.0414°
Arg. of periapsis
45.5543°
True anomaly
314.54775°
Mean anomaly
314.5796°
Eccentric anomaly
314.56368°
Mean motion
3.94495 °/min
Orbital period
91.26 mins
BSTAR
0.00031788
Loading maneuver chart data...
Computing Atmospheric mass density...
Loading historical data...
Loading historical data...
Loading historical data...
Loading historical data...
Loading historical data...
Loading historical data...
Loading historical data...

Documentation

Showing up to 5 results
|